Regional Weather Roundup
Issued by NWS

Home | Current Version | Previous Version | Graphics & Text | Print | Product List | Glossary On
Versions: 1 2 3 4 5 6 7 8 9 10 11 12 13 14 15 16 17 18 19 20 21 22 23 24 25 26 27 28 29 30 31 32 33 34 35 36 37 38 39 40 41 42 43 44 45 46 47 48 49 50
000
ASUS45 KTFX 250604
RWRMT
MONTANA HOURLY WEATHER ROUNDUP
NATIONAL WEATHER SERVICE GREAT FALLS MT
1204 AM MDT FRI JUL 25 2014

NOTE: "FAIR" INDICATES FEW OR NO CLOUDS BELOW 12000 FEET WITH NO
SIGNIFICANT WEATHER AND/OR OBSTRUCTIONS TO VISIBILITY.

* THESE STATIONS ARE NOT UNDER NWS QUALITY CONTROL. THEY DO NOT
   REPORT WEATHER SUCH AS PRECIPITATION OR FOG.

MTZ001>007-043-250700-
WEST OF THE DIVIDE
CITY           SKY/WX    TMP DP  RH WIND       PRES   REMARKS
KALISPELL      PTCLDY    54  39  57 S7        30.07F
MISSOULA       CLEAR     54  37  53 CALM      30.14S
BUTTE          CLEAR     54  32  43 N7        30.14F
MULLAN PASS    CLOUDY    45  37  74 SW9       30.19S
* ESSEX        N/A       56  41  57 SE2        N/A
* LINCOLN      N/A       53  35  51 S6G14      N/A
* LOOKOUT PASS N/A       49  43  80 S1         N/A
* POLSON       N/A       53  39  59 SW2G7      N/A
* RONAN APT    PTCLDY    52  45  77 N/A        N/A
* SEELEY LAKE  N/A       44  39  83 N/A        N/A
* THOMP F APT  CLEAR     56  20  24 NE6        N/A
$$

MTZ008-052>055-250700-
SOUTHWEST MONTANA
CITY           SKY/WX    TMP DP  RH WIND       PRES   REMARKS
BOZEMAN        CLEAR     54  32  43 NW7       30.08R
DILLON         CLEAR     54  30  40 SE8       30.10R
W YELLOWSTONE  CLEAR     55  25  31 SW9       30.18R
* THREE FORKS  CLEAR     61  41  48 N/A        N/A
* MONIDA PASS  N/A       51  14  23 SE6        N/A
* RAYNOLDS PAS N/A       52  37  57 S13G20     N/A
* WHITEHALL    N/A       59  29  32 W4         N/A
* WISE RIVER   N/A       52  33  48 W4G12      N/A
$$

MTZ009>010-012-014-046-048-049-054-250700-
EAST SLOPES AND CENTRAL MONTANA
CITY           SKY/WX    TMP DP  RH WIND       PRES   REMARKS
CUT BANK       CLEAR     55  37  51 SW23G33   29.93S
GREAT FALLS    CLEAR     57  34  42 SW14      29.99R
HELENA         CLEAR     61  36  39 W18       30.06S
MALMSTROM AFB  CLEAR     61  32  34 SW17G31   29.99F
* CONRAD       CLEAR     55  39  55 SW16G21    N/A
* EAST GLACIER N/A       52  36  55 NW8G14     N/A
* MONARCH      N/A       56  24  29 NW14G24    N/A
* SAINT MARY   N/A       52  38  59 SW14G32    N/A
* SWEET GRASS  N/A       55  35  47 W19G30     N/A
$$

MTZ011-013-016-021-035-040-045-047-050-051-250700-
NORTH CENTRAL MONTANA
CITY           SKY/WX    TMP DP  RH WIND       PRES   REMARKS
HAVRE          CLEAR     55  37  51 SW15      29.86S
LEWISTOWN      CLEAR     54  36  51 W8        29.98S
* CHESTER      N/A       56  36  47 SW5G10     N/A
* DENTON       N/A       56  32  40 W9G16      N/A
* JUDITH GAP   N/A       56  30  37 VRB12G18    N/A
* LOMA         N/A       56  39  53 S5         N/A
$$

MTZ017>020-022>027-061-062-250700-
NORTHEAST MONTANA
CITY           SKY/WX    TMP DP  RH WIND       PRES   REMARKS
GLASGOW        CLEAR     55  39  55 S3        29.88R
GLENDIVE       CLEAR     63  46  54 N10       29.90R
JORDAN         CLEAR     54  39  57 W3        29.91R
SIDNEY         CLEAR     61  52  72 NW9       29.86R
WOLF POINT     CLEAR     54  50  86 NW6       29.87R
* BEAVER HILL  N/A       61  52  72 NW13G20    N/A
* CIRCLE       N/A       59  51  75 N/A        N/A
* LINDSAY DVD  N/A       56  48  75 VRB6       N/A
* NAVAJO       N/A       52  49  90 NW4        N/A
$$

MTZ028>042-056>058-250700-
SOUTHCENTRAL AND SOUTHEAST MONTANA
CITY           SKY/WX    TMP DP  RH WIND       PRES   REMARKS
BAKER          CLEAR     63  48  58 W7        29.90R
BILLINGS       CLEAR     68  36  31 NE5       29.98R
LIVINGSTON     CLEAR     63  28  27 VRB7      30.04R
MILES CITY     CLEAR     63  54  73 E6        29.93R
* LAUREL APT   CLEAR     70  34  27 NW7        N/A
* ROUNDUP APT  CLEAR     64  27  25 N/A        N/A
* ALZADA       N/A       61  55  81 NW6        N/A
* HYSHAM       N/A       66  29  25 SE1        N/A
* LAME DEER    N/A       62  41  46 NE9        N/A
* REED POINT   N/A       68  31  25 SW4G10     N/A
* ROSCOE HILL  N/A       62  34  35 E6G12      N/A
$$

REGIONAL REPORTS...DAKOTAS
CITY           SKY/WX    TMP DP  RH WIND       PRES   REMARKS
WILLISTON      PTCLDY    61  55  81 NW7       29.83R
DICKINSON      PTCLDY    66  63  90 NW14      29.78R
CROSBY         N/A       59  59 100 NW8       29.80R
TIOGA          MOCLDY    64  64 100 W13       29.83R
WATFORD CITY   RAIN      63  63 100 NW9G22    29.79R
BISMARCK       CLOUDY    68  64  87 E9        29.66F
GRAND FORKS    CLOUDY    70  61  73 SE9       29.78F
FARGO          LGT RAIN  70  61  73 SE8       29.77F
BUFFALO SD     CLEAR     66  48  52 N28       29.77R
RAPID CITY     CLEAR     73  66  79 N14       29.77R
$$

REGIONAL REPORTS...WYOMING/IDAHO/WASHINGTON
CITY           SKY/WX    TMP DP  RH WIND       PRES   REMARKS
GILLETTE       CLEAR     64  52  65 N13       30.00R
SHERIDAN       FAIR      63  50  63 NW3       30.01R
YELLOWSTONE LA CLEAR     43  25  49 VRB3      30.29R
SALMON         CLEAR     61  37  41 SW6       30.08R
MULLAN PASS    CLOUDY    45  37  74 SW9       30.19S
SAND POINT     CLOUDY    54  54 100 CALM      30.07S
SPOKANE        FAIR      61  43  52 SW12      30.08S

$$



USA.gov is the U.S. government's official web portal to all federal, state and local government web resources and services.